This demonstration page uses our WeatherBlox Daily Observations layout. Learn more.

Left ArrowRight Arrow

34.02893, -84.19858

Hourly Observations for October 1, 2015

Temp ( °F °C ) Dew Point ( °F °C ) Humidity (%) Winds ( mph kmh ) Pressure ( in mb ) Visibility ( mi km ) Precip ( " mm )
12:53 am 00:53 Mostly Clear 68 20 66 18.9 93 93 NW 6 9 29.79 1009 10 16 0.00 0.00
1:19 am 01:19 Mostly Cloudy 67 19.4 66 18.9 97 97 NW 7 11 29.80 1009 10 16 0.00 0.00
1:53 am 01:53 Mostly Cloudy 67 19.4 65 18.3 93 93 NNW 6 9 29.78 1009 10 16 0.00 0.00
2:11 am 02:11 Partly Cloudy 66 18.9 65 18.3 96 96 NW 7 11 29.80 1009 10 16 0.00 0.00
2:30 am 02:30 Mostly Cloudy 66 19 64 18 94 94 NW 3 6 29.80 1009 10 16 0.00 0.00
2:45 am 02:45 Partly Cloudy 66 18.9 65 18.3 96 96 NW 3 6 29.80 1009 10 16 0.00 0.00
2:53 am 02:53 Mostly Cloudy 66 18.9 65 18.3 96 96 NW 5 7 29.78 1009 10 16 0.00 0.00
3:53 am 03:53 Cloudy 66 18.9 65 18.3 96 96 NNW 6 9 29.78 1009 10 16 0.00 0.00
4:53 am 04:53 Cloudy 66 18.9 65 18.3 96 96 NW 5 7 29.78 1009 10 16 0.00 0.00
5:18 am 05:18 Cloudy 66 19 64 18 94 94 N 5 7 29.80 1009 10 16 0.00 0.00
5:45 am 05:45 Cloudy 65 18.3 64 17.8 97 97 NNW 3 6 29.80 1009 10 16 0.00 0.00
5:53 am 05:53 Cloudy 65 18.3 65 18.3 100 100 N 3 6 29.78 1009 10 16 0.00 0.00
6:53 am 06:53 Cloudy 66 18.9 65 18.3 96 96 N 3 6 29.79 1009 10 16 0.00 0.00
7:53 am 07:53 Cloudy 67 19.4 65 18.3 93 93 Calm 29.80 1009 10 16 0.00 0.00
8:48 am 08:48 Cloudy 68 20 64 18 88 88 NNE 5 7 29.80 1009 10 16 0.00 0.00
8:53 am 08:53 Cloudy 68 20 66 18.9 93 93 N 5 7 29.81 1009 10 16 0.00 0.00
9:53 am 09:53 Cloudy 68 20 66 18.9 93 93 Calm 29.82 1010 10 16 0.00 0.00
10:53 am 10:53 Cloudy 69 20.6 66 18.9 90 90 NNE 6 9 29.82 1010 10 16 0.00 0.00
11:53 am 11:53 Cloudy 69 20.6 65 18.3 87 87 Calm 29.82 1010 10 16 0.00 0.00
12:53 pm 12:53 Cloudy 69 20.6 65 18.3 87 87 VRB 6 9 29.81 1010 10 16 0.00 0.00
1:00 pm 13:00 Cloudy 70 21 64 18 83 83 NE 3 6 29.83 1010 10 16 0.00 0.00
1:53 pm 13:53 Cloudy 70 21.1 65 18.3 84 84 NE 6 9 29.81 1010 10 16 0.00 0.00
2:53 pm 14:53 Cloudy 70 21.1 64 17.8 82 82 NNE 8 13 29.80 1009 10 16 0.00 0.00
3:20 pm 15:20 Cloudy 70 21 64 18 83 83 VRB 6 9 29.80 1009 10 16 0.00 0.00
3:34 pm 15:34 Cloudy 70 21 64 18 83 83 Calm 29.80 1009 10 16 0.00 0.00
3:53 pm 15:53 Cloudy 70 21.1 64 17.8 82 82 NE 6 9 29.79 1009 10 16 0.00 0.00
4:53 pm 16:53 Cloudy 69 20.6 64 17.8 84 84 VRB 3 6 29.78 1009 10 16 0.00 0.00
5:53 pm 17:53 Cloudy 68 20 65 18.3 90 90 VRB 6 9 29.79 1009 10 16 0.00 0.00
6:53 pm 18:53 Cloudy with Light Rain 67 19.4 65 18.3 93 93 VRB 6 9 29.80 1009 7 11 0.00 0.03
7:53 pm 19:53 Clear 75 24 66 19 74 74 WNW 5 7 29.74 1007 10 16 0.00 0.00
8:00 pm 20:00 Cloudy 66 19 64 18 94 94 ENE 5 7 29.80 1009 10 16 0.00 0.00
8:53 pm 20:53 Cloudy 67 19.4 65 18.3 93 93 NE 5 7 29.80 1009 10 16 0.00 0.00
9:53 pm 21:53 Cloudy 67 19.4 65 18.3 93 93 VRB 6 9 29.81 1009 10 16 0.00 0.00
10:08 pm 22:08 Cloudy 66 19 64 18 94 94 VRB 7 11 29.80 1009 10 16 0.00 0.00
10:53 pm 22:53 Cloudy with Light Rain 66 18.9 65 18.3 96 96 VRB 3 6 29.81 1010 6 10 0.00 0.03
11:26 pm 23:26 Cloudy with Light Rain 64 18 64 18 100 100 NE 5 7 29.80 1009 3 4 0.00 0.00
11:33 pm 23:33 Cloudy with Light Rain 65 18.3 65 18.3 100 100 NNE 5 7 29.80 1009 4 6 0.11 2.79
11:53 pm 23:53 Cloudy with Light Rain 65 18.3 65 18.3 100 100 NE 6 9 29.80 1009 3 5 0.12 3.05

Powered by AerisWeather